{"data":{"norad_id":57609,"epoch":"2026-09-19T04:38:14.737632Z","epoch_age_seconds":240876,"freshness":"STALE","line1":"1 57609U 23119H   26262.19322613  .00001432  00000+0  61557-4 0  9995","line2":"2 57609  43.0072  68.4783 0001969 260.3468  99.7161 15.27574819172681","mean_motion":15.27574819,"eccentricity":0.0001969,"inclination_deg":43.0072,"raan_deg":68.4783,"arg_perigee_deg":260.3468,"mean_anomaly_deg":99.7161,"bstar":6.1557e-5,"rev_number":17268,"period_min":94.267068433523,"perigee_km":481.71363926437,"apogee_km":484.41558045834,"semimajor_km":6861.2016098614,"source":"CELESTRAK","updated_at":"2026-09-21T09:00:33.641245Z"}}